www.pogodaiklimat.ru

Погода и климат >> Архив погоды >> Казахстан >> Жангизтобе


ПОГОДА в Жангизтобе

  • Прогноз погоды в Жангизтобе
  • Монитор погоды в Жангизтобе
  • Климат города

АРХИВ ПОГОДЫ в Жангизтобе

Время (UTC), дата Ветер
(напр.,м/с)
 
Видим.   Явления Облачность Т
(С)
Тd
(С)
f
(%)
Тe
(С)
Тes
(С)
Комфортность P
(гПа)
Po
(гПа)
Тmin
(С)
Tmax
(С)
R
(мм)
R24
(мм)
S
(см)
21 16.06 ЮЗ 2 н/о 6/6 1000 м
[Sc diur, vesp]
+18.8 +7.4 47 +20 +20 1006.8 955.3
00 17.06 ЮЗ 2 50 км 6/0
[Ac lent]
+20.8 +10.1 50 +23 +24 комфорт 1006.8 955.7
03 17.06 З 2 50 км 4/0
[Ac trans]
+26.7 +9.7 34 +27 +34 жарко 1005.6 955.5
06 17.06 СЗ 1 50 км 3/0
[Ci fib]
+29.5 +9.0 28 +29 +49 жарко 1003.9 954.3 +18.7
09 17.06 СЗ 1 50 км ясно +32.1 +6.8 21 +30 +47 жарко 1002.7 953.6
12 17.06 СЗ 2 50 км ясно +33.0 +5.1 17 +31 +34 жарко 1002.0 953.0
15 17.06 С 1 50 км ясно +27.3 +11.1 36 +28 +28 жарко 1003.3 953.4 +33.5
18 17.06 З 1 н/о ясно +24.0 +10.6 43 +25 +25 комфорт 1004.3 953.8 +33.5
21 17.06 штиль 0 н/о ясно +19.3 +10.8 58 +20 +20 1005.4 954.1
00 18.06 ЮЗ 2 50 км ясно +20.2 +10.0 52 +22 +23 комфорт 1006.0 954.8
03 18.06 Ю 2 50 км ясно +28.2 +12.9 39 +30 +39 жарко 1004.9 955.1
06 18.06 ЮЗ 1 50 км 3/3 1000 м
[Cu hum]
+32.0 +9.5 25 +31 +46 жарко 1003.9 954.7 +18.7
09 18.06 ЮЗ 1 50 км 3/3 1000 м
[Cu hum]
+34.2 +7.8 20 +33 +44 жарко 1002.3 953.5
12 18.06 СЗ 2 50 км 3/1 1000 м
[Cu hum Ci fib]
+35.0 +6.3 17 +33 +36 жарко 1001.7 953.1
15 18.06 В 1 50 км 6/3 1000 м
[Sc diur, vesp Ci fib]
+30.8 +8.8 25 +30 +30 жарко 1003.0 953.7 +35.6
18 18.06 Ю 2 н/о зарница 3/3 1000 м
[Cb calv]
+25.1 +11.9 44 +27 +27 жарко 1004.7 954.4 +35.6
21 18.06 Ю 3 н/о 8/4 1000 м
[Sc Ac As]
+23.1 +14.1 57 +27 +27 душно 1005.9 955.3
00 19.06 ЮЗ 2 50 км 8/8 1000 м
[Sc]
+22.7 +12.8 54 +26 +26 жарко 1006.7 955.9
03 19.06 ЮЗ 3 50 км 8/8 1000 м
[Sc]
+28.2 +12.4 38 +30 +31 жарко 1006.6 956.7
06 19.06 штиль 0 50 км 8/4 1000 м
[Sc Ac cuf]
+32.7 +11.2 27 +33 +40 жарко 1005.1 956.0 +22.3
09 19.06 СВ 3 50 км 10/0
[Ac As]
+32.6 +11.0 27 +32 +36 жарко 1004.2 955.1
12 19.06 С 3 50 км 8/4 1000 м
[Sc diur, vesp Ac cast]
+32.4 +10.7 26 +32 +33 жарко 1003.7 954.6
15 19.06 С 2 50 км 4/0
[Ac cuf]
+29.0 +12.4 36 +30 +30 жарко 1003.8 954.2 +34.0
18 19.06 ЮВ 1 н/о ясно +22.3 +13.3 57 +25 +25 комфорт 1004.9 954.2 +34.0
21 19.06 ЮЗ 2 н/о ясно +20.0 +12.7 63 +22 +22 комфорт 1004.7 953.6
00 20.06 Ю 2 50 км ясно +20.3 +12.3 60 +23 +24 комфорт 1005.0 953.9
03 20.06 ЮЗ 2 50 км ясно +27.9 +13.5 41 +30 +39 жарко 1003.0 953.3
06 20.06 Ю 1 50 км 3/3 1000 м
[Cu hum]
+33.2 +8.4 22 +32 +47 жарко 1000.4 951.6 +19.9
09 20.06 Ю 2 50 км 8/6 1000 м
[Cu hum Ci fib]
+34.0 +9.0 22 +33 +38 жарко 998.6 950.0
12 20.06 СЗ 5
{18}
50 км {метель} 8/6 1000 м
[Cb calv Ac As Ci fib]
+31.0 +7.5 23 +30 +30 жарко 1000.2 951.0
15 20.06 С 2 50 км 9/8 1000 м
[Cb calv Ci fib]
+25.9 +12.6 44 +28 +28 жарко 1002.8 952.8 +35.0
18 20.06 Ю 3 н/о гроза, ливневой дождь 10/10 600 м
[Cb cap]
+23.3 +15.1 60 +27 +27 душно 1002.7 952.3 +35.0
21 20.06 ЮЗ 2 н/о зарница {гроза} 9/9 600 м
[Cb cap]
+21.0 +15.2 69 +25 +25 комфорт 1002.8 952.0
00 21.06 Ю 2 50 км {гроза, ливн. осадки} 8/8 1000 м
[Cb calv]
+21.3 +14.3 64 +24 +24 комфорт 1003.3 952.5
03 21.06 ЮЗ 2 50 км 6/3 1000 м
[Sc Ac trans]
+28.1 +14.2 43 +30 +35 жарко 1002.6 953.0
06 21.06 Ю 2 50 км 4/4 1000 м
[Cu hum]
+31.0 +10.0 27 +31 +41 жарко 1001.8 952.6 +20.0 0.0
09 21.06 ЮЗ 2 50 км 9/9 1000 м
[Sc diur, vesp]
+32.2 +9.6 25 +32 +33 жарко 1000.6 951.6
12 21.06 СЗ 2 50 км 9/6 1000 м
[Sc Ci fib]
+31.8 +12.3 30 +32 +33 жарко 1000.9 951.9
15 21.06 СЗ 1 50 км 8/8 1000 м
[Sc]
+28.7 +14.0 41 +31 +31 жарко 1001.6 952.1 +33.0
18 21.06 СЗ 2 н/о 9/9 1000 м
[Sc]
+24.9 +13.7 50 +27 +27 жарко 1003.3 953.1 +33.0
21 21.06 Ю 1 н/о 6/0
[Ac und]
+21.2 +14.3 65 +24 +24 комфорт 1003.9 953.1
00 22.06 Ю 1 50 км 3/0
[Ci fib]
+20.2 +13.6 66 +23 +25 комфорт 1003.1 952.1
03 22.06 Ю 4 50 км 6/0
[Ac As Ci fib]
+30.2 +14.6 39 +32 +37 жарко 1000.4 951.2
06 22.06 З 4 50 км 8/8 1000 м
[Cb calv]
+35.2 +9.2 20 +34 +36 очень
жарко
999.1 950.7
09 22.06 СВ 4 50 км {ливн. осадки} 8/8 1000 м
[Cu med, cong]
+34.0 +10.9 24 +33 +35 жарко 999.1 950.5
12 22.06 В 4 50 км {ливн. осадки} 8/6 1000 м
[Cu med, cong Ci fib]
+33.0 +11.7 27 +33 +34 жарко 999.5 950.7
15 22.06 ЮВ 2 50 км 8/3 1000 м
[Sc diur, vesp Ci fib]
+30.2 +13.1 35 +31 +31 жарко 1001.3 952.0 +37.0
18 22.06 С 5 н/о ясно +23.7 +16.5 64 +27 +27 жарко 1003.8 953.4 +37.0 0.0
21 22.06 СЗ 1 н/о 3/0
[Ac lent]
+21.0 +15.9 73 +26 +26 душно 1004.4 953.5
00 23.06 СЗ 1 50 км 4/0
[Ac cast Ci fib]
+19.8 +15.3 75 +23 +24 комфорт 1005.0 953.9
03 23.06 СВ 1 50 км 4/0
[Ci fib]
+25.9 +16.4 56 +29 +40 душно 1003.6 953.6
06 23.06 С 2 50 км 8/0
[Ci]
+31.5 +14.5 36 +33 +48 жарко 1001.3 952.3 +18.0
09 23.06 З 7 4000 м гроза, ливневой дождь 10/10 1000 м
[Cb cap]
+26.5 +16.3 53 +30 +30 душно 1002.9 953.0
12 23.06 В 5 50 км {гроза, ливн. осадки} 10/10 1000 м
[Cb calv]
+24.2 +15.8 59 +27 +27 жарко 1004.7 954.4
15 23.06 В 4 50 км 10/10 1000 м
[Sc]
+21.6 +16.8 74 +26 +26 душно 1002.8 952.1 +34.0
18 23.06 ЮВ 8
{15}
н/о 8/8 1000 м
[Sc]
+22.3 +14.3 61 +26 +26 жарко 1000.8 950.3 +34.0 3

 

Местоположение метеостанции Жангизтобе (Восточно-Казахстанская область, Казахстан): широта 49.22 долгота 81.22 высота над уровнем моря 455 м.

В архиве по умолчанию представлена погода в Жангизтобе за последнюю неделю. Архивные данные за месяц целиком и за предыдущие месяцы, начиная с января 2011 года, Вы можете получить, выбрав интересующий диапазон дат из раскрывающегося списка и нажав кнопку "Ввод!".

Внимание! Время в таблицах - всемирное. Для получения местного времени необходимо прибавить поправку, которая в Жангизтобе равна 6 ч.

Смотрите также архив погоды в соседних городах и на ближайших метеорологических станциях:

Погода в Кентерлау (Восточно-Казахстанская область, Казахстан) (29 км)
Погода в Шаре (Восточно-Казахстанская область, Казахстан) (42 км)
Погода в Шалабае (Восточно-Казахстанская область, Казахстан) (57 км)
Погода в Кокпектах (Восточно-Казахстанская область, Казахстан) (99 км)
Погода в Кайсенова (Восточно-Казахстанская область, Казахстан) (117 км)
Погода в Таврии (Восточно-Казахстанская область, Казахстан) (121 км)
Погода в Первомайском (Восточно-Казахстанская область, Казахстан) (130 км)
Погода в Шульбинске (Восточно-Казахстанская область, Казахстан) (130 км)
Погода в Глубоком (Восточно-Казахстанская область, Казахстан) (130 км)
Погода в Усть-Каменогорске (Восточно-Казахстанская область, Казахстан) (131 км)

Пояснения к столбцам:

Ветер - указаны скорость ветра в м/с - средняя за 10 мин, порывы в срок и между сроками (в фигурных скобках) и направление, откуда дует ветер: С - северный, СВ - северо-восточный, В - восточный, ЮВ - юго-восточный, Ю - южный, ЮЗ - юго-западный, З - западный, СЗ - северо-западный.
Видимость - горизонтальная дальность видимости в метрах или километрах. При видимости от 1 до 10 км при отсутствии осадков обычно наблюдается дымка, при ухудшении видимости до 1 км и менее - туман. В сухую погоду видимость может ухудшаться дымом, пылью или мглою.
Явления - указаны атмосферные явления, наблюдавшиеся в срок или в последний час перед сроком; фигурными скобками обозначены явления, наблюдавшиеся между сроками (за 1-3 часа до срока); квадратными скобками обозначены град или гололедные отложения с указанием их диаметра в мм.
Облачность - указаны через наклонную черту общая и нижняя облачность в баллах и высота нижней границы облаков в метрах; квадратными скобками обозначены формы облаков: Ci - перистые, Cs - перисто-слоистые, Cc - перисто-кучевые, Ac - высококучевые, As - высокослоистые, Sc - слоисто-кучевые, Ns - слоисто-дождевые, Cu - кучевые, Cb - кучево-дождевые. Подробнее классификацию облаков см. в Атласе облаков (PDF).
T - Температура воздуха - температура, измеренная на высоте 2 м над землей.
Td - Температура точки росы - температура, при понижении до которой содержащийся в воздухе водяной пар достигнет насыщения.
f - Относительная влажность воздуха - влажноcть воздуха, измеренная на высоте 2 м над землей.
Te - Эффективная температура - температура, которую ощущает одетый по сезону человек в тени. Характеристика душности погоды. При расчете учитывается влияние влажности воздуха и скорости ветра на теплоощущения человека.
Tes - Эффективная температура на солнце - температура, которую ощущает человек, с поправкой на солнечный нагрев. Характеристика знойности погоды. Зависит от высоты солнца над горизонтом, облачности и скорости ветра. Ночью, в пасмурную погоду, а также при ветре 12 м/с и более поправка равна нулю.
P - Атмосферное давление - приведенное к уровню моря атмосферное давление.
Po - Атмосферное давление - измеренное на уровне метеостанции атмосферное давление.
Tmin - Минимальная температура - минимум температуры воздуха на высоте 2 м над землей.
Tmax - Максимальная температура - максимум температуры воздуха на высоте 2 м над землей.
R - Количество осадков - Количество выпавших осадков за период времени, мм. При наведении курсора мыши на число - период времени, за который выпало указанное количество осадков.
R24 - Количество осадков - Количество выпавших осадков за 24 часа, мм.
S - Снежный покров - Высота снежного покрова, см. При наведении курсора мыши на число - состояние снежного покрова и степень покрытия местности в баллах.